This is the latest recevied weather packets stored in our database for station/object W4MSI. If no packets are shown the sender has not sent any weather packets the latest 10 day(s).
| Time | Temp. | Humidity | Pressure | Rain* | Wind** | Luminosity | Snow |
|---|---|---|---|---|---|---|---|
| 1778075350 | 10° C | 98% | 1012.5 hPa | 0 mm | - | 44 W/m² | - |
| 1778075046 | 10° C | 98% | 1012.2 hPa | 0 mm | - | 40 W/m² | - |
| 1778074743 | 10° C | 98% | 1012.2 hPa | 0 mm | - | 47 W/m² | - |
| 1778074440 | 10° C | 98% | 1011.9 hPa | 0 mm | - | 24 W/m² | - |
| 1778074136 | 10° C | 98% | 1011.7 hPa | 0 mm | - | 30 W/m² | - |
| 1778073834 | 10° C | 98% | 1011.6 hPa | 0 mm | - | 24 W/m² | - |
| 1778073532 | 10° C | 98% | 1011.7 hPa | 0 mm | - | 31 W/m² | - |
| 1778073228 | 10° C | 98% | 1011.6 hPa | 0 mm | - | 53 W/m² | - |
| 1778072925 | 10° C | 99% | 1011.4 hPa | 0 mm | - | 75 W/m² | - |
| 1778072621 | 10° C | 99% | 1011.4 hPa | 0 mm | - | 81 W/m² | - |
| 1778072319 | 10° C | 99% | 1011.5 hPa | 0 mm | - | 76 W/m² | - |
| 1778072018 | 10° C | 99% | 1011.6 hPa | 0 mm | - | 55 W/m² | - |
| 1778071715 | 10° C | 99% | 1011.4 hPa | 0 mm | - | 51 W/m² | - |
| 1778071412 | 10° C | 99% | 1011.5 hPa | 0 mm | - | 43 W/m² | - |
| 1778071110 | 9.44° C | 99% | 1011.4 hPa | 0 mm | - | 25 W/m² | - |
| 1778070808 | 9.44° C | 99% | 1011.3 hPa | 0 mm | - | 28 W/m² | - |
| 1778070505 | 9.44° C | 99% | 1011.4 hPa | 0 mm | - | 25 W/m² | - |
| 1778070202 | 9.44° C | 99% | 1011.4 hPa | 0 mm | - | 19 W/m² | - |
| 1778069900 | 9.44° C | 99% | 1011.5 hPa | 0 mm | - | 13 W/m² | - |
| 1778069597 | 9.44° C | 99% | 1011.6 hPa | 0 mm | - | 12 W/m² | - |
| 1778069294 | 9.44° C | 99% | 1011.4 hPa | 0 mm | - | 13 W/m² | - |
| 1778068992 | 9.44° C | 99% | 1010.8 hPa | 0 mm | - | 13 W/m² | - |
| 1778068689 | 9.44° C | 99% | 1010.9 hPa | 0 mm | - | 14 W/m² | - |
| 1778068387 | 10° C | 98% | 1011 hPa | 0 mm | - | 13 W/m² | - |
| 1778068085 | 9.44° C | 99% | 1011 hPa | 0 mm | - | 12 W/m² | - |
* Rain latest hour (hover to see other rain measurements)
** Current wind speed in m/s (hover to see current wind gust speed)